Location: Pedholt
(56.0260°N, 10.2097°E)
Time: 12:13:31
(UTC+00:00)

Tiros 1 - Pass Details

Date: 05 August 2021
Orbit: 630 x 663 km, 48.4° (Epoch: 23 September)

Event Time Altitude Azimuth Distance (km) Brightness Sun altitude
Rises 19:47:09 0° 265° (W) 2,982 11.3 -4.1°
Reaches altitude 10° 19:49:46 10° 253° (WSW) 2,064 10.3 -4.4°
Maximum altitude 19:53:46 27° 196° (SSW) 1,237 8.4 -4.8°
Drops below altitude 10° 19:57:45 10° 138° (SE) 2,042 9.1 -5.3°
Enters shadow 19:58:35 - 134° (SE) 2,324 9.3 -5.4°
Sets 20:00:19 0° 127° (SE) 2,944 - -5.5°
